www.pogodaiklimat.ru

Погода и климат >> Архив погоды >> Гана >> Навронго


ПОГОДА в Навронго

  • Прогноз погоды в Навронго
  • Монитор погоды в Навронго

АРХИВ ПОГОДЫ в Навронго

Время (UTC), дата Ветер
(напр.,м/с)
 
Видим.   Явления Облачность Т
(С)
Тd
(С)
f
(%)
Тe
(С)
Тes
(С)
Комфортность P
(гПа)
Po
(гПа)
Тmin
(С)
Tmax
(С)
R
(мм)
R24
(мм)
S
(см)
21 17.05 ЮЗ 2 12 км зарница 8/1 900 м
[Cb cap Ac trans Ci fib]
+33.6 +23.9 57 +45 +45 опасность
перегрева
1008.8 986.2
00 18.05 ЮЗ 2 12 км 9/0
[Ac trans]
+32.1 +23.9 62 +44 +44 опасность
перегрева
1009.3 986.6
06 18.05 ЮЗ 2 12 км 8/0
[Ac trans]
+27.4 +22.8 76 +36 +36 очень
душно
1009.8 986.8 +25.3
09 18.05 ЮЗ 1 12 км 6/0
[Ac trans Ci fib]
+30.7 +22.2 61 +40 +50 очень
душно
1011.8 989.0
12 18.05 ЮЗ 1 12 км 5/0
[Ac trans Ci fib]
+35.0 +23.4 51 +46 +66 опасность
перегрева
1010.8 988.3
18 18.05 ЮЗ 1 12 км 6/4 540 м
[Cb cap Ac trans Ci fib]
+36.5 +21.9 43 +45 +45 опасность
перегрева
1006.6 984.3 +38.3
21 18.05 ЮВ 2 12 км 8/3 360 м
[Sc Ac trans Ci fib]
+33.0 +23.5 58 +44 +44 опасность
перегрева
1008.9 986.3
00 19.05 ЮЗ 1 12 км 8/0
[Ac trans]
+31.5 +24.9 68 +45 +45 опасность
перегрева
1010.6 987.8
06 19.05 ЮЗ 1 12 км 9/0
[Ac trans]
+30.0 +25.5 77 +44 +44 опасность
перегрева
1009.3 986.5 +26.0
09 19.05 ЮЗ 2 12 км 1/1 540 м
[Cu hum]
+33.5 +25.5 63 +48 +59 опасность
перегрева
1011.0 988.4
12 19.05 ЮВ 2 12 км 4/4 540 м
[Cu med, cong]
+36.9 +23.4 46 +47 +61 опасность
перегрева
1010.2 987.8
15 19.05 ЮЗ 2 12 км 6/6 540 м
[Cu med, cong]
+38.0 +22.9 42 +47 +52 опасность
перегрева
1006.9 984.7
21 19.05 ЮЗ 1 12 км 9/0
[Ac trans]
+31.0 +22.8 62 +41 +41 опасность
перегрева
1009.2 986.4
03 20.05 ЮЗ 3 12 км 9/0
[Ac trans]
+28.0 +20.2 63 +34 +34 очень
душно
1009.9 986.9
06 20.05 ЮЗ 2 12 км 9/0
[Ac trans]
+26.6 +21.5 74 +34 +34 очень
душно
1011.2 988.1 +23.7
21 20.05 ЮЗ 2 12 км 5/0
[Ci fib]
+32.5 +21.7 53 +41 +41 опасность
перегрева
1009.2 986.6
00 21.05 ЮЗ 2 12 км зарница 8/1 900 м
[Cb cap Cs]
+28.9 +22.4 68 +38 +38 очень
душно
1011.1 988.1
12 21.05 ЮВ 1 12 км 4/0
[Ac trans]
+35.2 +20.9 43 +42 +61 опасность
перегрева
1011.9 989.4
15 21.05 ЮВ 1 12 км 4/4 540 м
[Cu med, cong]
+37.0 +21.9 42 +45 +53 опасность
перегрева
1008.7 986.4
18 21.05 ЮВ 1 12 км 6/0
[Ac trans]
+35.0 +21.8 46 +43 +43 опасность
перегрева
1006.8 984.4 +37.2
21 21.05 ЮВ 2 12 км 6/0
[Ac trans]
+32.9 +22.7 55 +43 +43 опасность
перегрева
1009.1 986.5
00 22.05 ЮЗ 2 12 км 9/0
[Ac trans]
+31.5 +23.3 62 +42 +42 опасность
перегрева
1010.9 988.1
06 22.05 ЮЗ 2 12 км 9/0
[Ac trans]
+29.0 +24.1 75 +40 +40 очень
душно
1010.1 987.2 +27.0
09 22.05 ЮЗ 2 12 км 9/0
[Ac trans]
+37.5 +23.1 44 +47 +53 опасность
перегрева
1012.3 989.9
12 22.05 ЮЗ 2 12 км 8/3 480 м
[Cu hum Cs]
+35.0 +23.9 53 +47 +61 опасность
перегрева
1011.8 989.3
15 22.05 СВ 2 12 км 8/4 500 м
[Cu med, cong Cs]
+36.8 +22.6 44 +46 +52 опасность
перегрева
1008.5 986.2
21 22.05 ЮЗ 1 12 км гроза без осадков 9/5 360 м
[Cb cap Ac trans]
+33.1 +23.5 57 +44 +44 опасность
перегрева
1008.8 986.2
00 23.05 СВ 1 12 км гроза без осадков 9/3 360 м
[Cb cap Ac trans]
+25.0 +24.0 94 +34 +34 очень
душно
1012.4 989.1 36
06 23.05 СЗ 1 12 км {гроза} 6/0
[Ac trans Ci fib]
+26.0 +22.1 79 +34 +34 очень
душно
1011.1 987.9 +23.8 36
09 23.05 ЮЗ 2 12 км 5/0
[Ci fib]
+30.0 +24.6 73 +43 +53 опасность
перегрева
1012.2 989.3
15 23.05 ЮЗ 2 12 км 5/3 540 м
[Cu hum Ci fib]
+38.0 +23.7 44 +49 +57 опасность
перегрева
1006.9 984.7
18 23.05 ЮЗ 1 12 км 8/3 360 м
[Cb cap Ac trans]
+36.0 +24.6 52 +49 +49 опасность
перегрева
1005.8 983.5 +38.0
21 23.05 ЮЗ 1 12 км 9/0
[Ac trans]
+33.5 +24.9 61 +47 +47 опасность
перегрева
1008.2 985.6
00 24.05 ЮЗ 1 12 км 8/0
[Ac trans Cs]
+31.0 +24.2 67 +43 +43 опасность
перегрева
1009.7 986.9
03 24.05 ЮЗ 1 12 км зарница 9/4 360 м
[Cb cap Cs]
+29.0 +23.0 70 +39 +39 очень
душно
1009.0 986.1
06 24.05 СЗ 2 12 км 9/9 300 м
[Cb calv Ac As Ci sp]
+25.5 +23.2 87 +34 +34 очень
душно
1010.4 987.2 +23.2
09 24.05 СЗ 2 12 км 6/0
[Ac trans]
+29.0 +22.8 69 +38 +46 очень
душно
1013.8 990.8
15 24.05 СЗ 2 12 км 8/1 540 м
[Cu hum Cs]
+35.6 +22.4 47 +45 +54 опасность
перегрева
1008.4 986.0
18 24.05 СЗ 2 12 км 6/1 900 м
[Cb cap Cs]
+34.2 +20.8 46 +41 +41 опасность
перегрева
1007.0 984.5 +35.6

 

Местоположение метеостанции Навронго (Гана): широта 10.90 долгота -1.10 высота над уровнем моря 203 м.

В архиве по умолчанию представлена погода в Навронго за последнюю неделю. Архивные данные за месяц целиком и за предыдущие месяцы, начиная с января 2011 года, Вы можете получить, выбрав интересующий диапазон дат из раскрывающегося списка и нажав кнопку "Ввод!".


*Определитесь, кто Вы:
робот инопланетянин человек

Внимание! Время в таблицах - всемирное. Для получения местного времени необходимо прибавить поправку, которая равна 1 ч.

Смотрите также архив погоды в соседних городах и на ближайших метеорологических станциях:

Погода в По (Буркина-Фасо) (28 км)
Погода в Тамале (Гана) (158 км)
Погода в Дапаоне (Того) (158 км)
Погода в Уагадугу (Буркина-Фасо) (168 км)
Погода в Ва (Гана) (180 км)
Погода в Манго (Того) (181 км)
Погода в Йенди (Гана) (200 км)
Погода в Фада-Нгурме (Буркина-Фасо) (204 км)
Погода в Боромо (Буркина-Фасо) (221 км)
Погода в Гауа (Буркина-Фасо) (236 км)

Пояснения к столбцам:

Ветер - указаны скорость ветра в м/с - средняя за 10 мин, порывы в срок и между сроками (в фигурных скобках) и направление, откуда дует ветер: С - северный, СВ - северо-восточный, В - восточный, ЮВ - юго-восточный, Ю - южный, ЮЗ - юго-западный, З - западный, СЗ - северо-западный.
Видимость - горизонтальная дальность видимости в метрах или километрах. При видимости от 1 до 10 км при отсутствии осадков обычно наблюдается дымка, при ухудшении видимости до 1 км и менее - туман. В сухую погоду видимость может ухудшаться дымом, пылью или мглою.
Явления - указаны атмосферные явления, наблюдавшиеся в срок или в последний час перед сроком; фигурными скобками обозначены явления, наблюдавшиеся между сроками (за 1-3 часа до срока); квадратными скобками обозначены град или гололедные отложения с указанием их диаметра в мм.
Облачность - указаны через наклонную черту общая и нижняя облачность в баллах и высота нижней границы облаков в метрах; квадратными скобками обозначены формы облаков: Ci - перистые, Cs - перисто-слоистые, Cc - перисто-кучевые, Ac - высококучевые, As - высокослоистые, Sc - слоисто-кучевые, Ns - слоисто-дождевые, Cu - кучевые, Cb - кучево-дождевые. Подробнее классификацию облаков см. в Атласе облаков (PDF).
T - Температура воздуха - температура, измеренная на высоте 2 м над землей.
Td - Температура точки росы - температура, при понижении до которой содержащийся в воздухе водяной пар достигнет насыщения.
f - Относительная влажность воздуха - влажноcть воздуха, измеренная на высоте 2 м над землей.
Te - Эффективная температура - температура, которую ощущает одетый по сезону человек в тени. Характеристика душности погоды. При расчете учитывается влияние влажности воздуха и скорости ветра на теплоощущения человека.
Tes - Эффективная температура на солнце - температура, которую ощущает человек, с поправкой на солнечный нагрев. Характеристика знойности погоды. Зависит от высоты солнца над горизонтом, облачности и скорости ветра. Ночью, в пасмурную погоду, а также при ветре 12 м/с и более поправка равна нулю.
P - Атмосферное давление - приведенное к уровню моря атмосферное давление.
Po - Атмосферное давление - измеренное на уровне метеостанции атмосферное давление.
Tmin - Минимальная температура - минимум температуры воздуха на высоте 2 м над землей.
Tmax - Максимальная температура - максимум температуры воздуха на высоте 2 м над землей.
R - Количество осадков - Количество выпавших осадков за период времени, мм. При наведении курсора мыши на число - период времени, за который выпало указанное количество осадков.
R24 - Количество осадков - Количество выпавших осадков за 24 часа, мм.
S - Снежный покров - Высота снежного покрова, см. При наведении курсора мыши на число - состояние снежного покрова и степень покрытия местности в баллах.